Location: Stara Lesna
(49.1528°N, 20.2911°E)
Time: 17:44:22
(UTC+02:00)

Cosmos 1538 Rocket - Pass Details

Date: 21 September 2019
Orbit: 752 x 792 km, 74.0° (Epoch: 14 October)

Event Time Altitude Azimuth Distance (km) Brightness Sun altitude
Exits shadow 05:17:53 - 213° (SSW) 2,586 6.3 -11.4°
Reaches altitude 10° 05:18:42 10° 215° (SW) 2,276 6.0 -11.2°
Maximum altitude 05:23:48 63° 296° (WNW) 840 4.0 -10.4°
Drops below altitude 10° 05:28:57 10° 18° (NNE) 2,288 6.9 -9.6°
Sets 05:31:21 0° 22° (NNE) 3,218 7.7 -9.2°
